Home   Weather   Trujillo   Past weeks

Flag for Peru Past Weather in Trujillo, La Libertad, Peru — Yesterday and Last 2 Weeks

Now
75 °F

Partly sunny.


Feels Like: 77 °F
Forecast: 68 / 77 °F
Wind: 9 mph from South

Location: Trujillo Airport

Current Time: Apr 23, 2017 at 2:57:27 pm

Latest Report: Apr 23, 2017 at 2:00 pm


Visibility: 6 mi

Pressure: 29.83 "Hg

Humidity: 74%

Dew Point: 66 °F

Location of TrujilloLocation

Past Weather in Trujillo — Graph

°F

Trujillo Temperature Yesterday

Maximum temperature yesterday: 73 °F (at 12:35 pm)
Minimum temperature yesterday: 66 °F (at 6:21 am)
Average temperature yesterday: 70 °F

High & Low Weather Summary for the Past Weeks

 TemperatureHumidityPressure
High77 °F (Apr 8, 1:00 pm)100% (Apr 22, 6:21 am)29.98 "Hg (Apr 22, 6:21 am)
Low66 °F (Apr 22, 6:21 am)69% (Apr 16, 12:00 pm)29.74 "Hg (Apr 14, 4:00 pm)
Average72 °F85%29.86 "Hg
* Reported Apr 8 1:00 pm — Apr 23 1:00 pm, Trujillo, Weather by CustomWeather, © 2017

Note: Actual official high and low records may vary slightly from our data, if they occured in-between our weather recording intervals... More about our weather records

Advertising

Trujillo Weather History for the Previous 24 Hours

Scroll right to see more
 ConditionsComfort  
Time TempWeatherWind HumidityBarometerVisibility
1:00 pm
Sun, Apr 23
75 °FScattered clouds.9 mph74%29.86 "HgN/A
12:00 pm75 °FScattered clouds.9 mph74%29.86 "HgN/A
11:00 am73 °FScattered clouds.10 mph78%29.89 "Hg4 mi
10:00 am77 °FPassing clouds.12 mph74%29.89 "Hg6 mi
9:00 am72 °FFog.12 mph83%29.89 "Hg3 mi
8:00 am70 °FFog.6 mph88%29.89 "Hg3 mi
7:00 am72 °FPartly sunny.7 mph83%29.86 "Hg6 mi
6:00 am72 °FOvercast.7 mph83%29.86 "Hg4 mi
5:00 am72 °FOvercast.7 mph83%29.83 "HgN/A
4:00 am72 °FMild.N/A83%29.83 "HgN/A
3:00 am70 °FOvercast.8 mph88%29.83 "Hg4 mi
2:00 am70 °FFog.8 mph88%29.86 "Hg3 mi
1:00 am70 °FPassing clouds.7 mph88%29.89 "Hg4 mi
12:00 am70 °FFog.3 mph88%29.89 "Hg3 mi
11:00 pm
Sat, Apr 22
70 °FPassing clouds.3 mph88%29.89 "Hg5 mi
10:00 pm70 °FPassing clouds.8 mph88%29.89 "Hg4 mi
9:00 pm70 °FPassing clouds.10 mph88%29.86 "Hg4 mi
8:00 pm72 °FPassing clouds.12 mph88%29.86 "Hg4 mi
7:00 pm72 °FPassing clouds.10 mph88%29.83 "Hg4 mi
6:00 pm72 °FPassing clouds.8 mph88%29.80 "Hg5 mi
5:00 pm72 °FPassing clouds.9 mph88%29.77 "Hg5 mi
4:00 pm73 °FPassing clouds.10 mph83%29.77 "Hg6 mi
3:00 pm73 °FPassing clouds.13 mph83%29.77 "HgN/A
2:00 pm73 °FPassing clouds.13 mph83%29.80 "HgN/A
Weather by CustomWeather, © 2017

See weather overviewHow to use our weather pages